DW8209 Gubbio IT current weather conditions

sailwx.info

Last reported at 2014-Nov-29 02:46 UTC.
Time now 2014-Nov-29 03:39 UTC

Location: N 43°19' E 012°34'.
View on Google Maps.

See reports from other nearby stations

  
Tides and Currents Weather Stations Pressure Air Temp Water Temp Dewpoint Dewpoint Depression Visibility Wind Speed Wind Dir Waves Ship Positions
date/time (UTC)wind fromknots sea level pressurealtimeterstation pressurevisibilityair tempwater tempwave heightnotes
2014-Nov-29 02:46
2014-Nov-29 02:31
2014-Nov-29 02:15
2014-Nov-29 02:00
2014-Nov-29 01:45
2014-Nov-29 01:30
2014-Nov-29 01:00 170 4.4
2014-Nov-29 00:45 170 5.0
2014-Nov-29 00:30 170 4.4
2014-Nov-29 00:15 170 5.0
2014-Nov-29 00:00 171 5.0
2014-Nov-28 23:45 165 5.6
2014-Nov-28 23:30 163 5.6
2014-Nov-28 23:15 163 5.6
2014-Nov-28 23:00 163 6.1
2014-Nov-28 22:45 167 6.1
2014-Nov-28 22:30 167 5.6
2014-Nov-28 22:15 170 6.7
2014-Nov-28 22:00 170 6.7
2014-Nov-28 21:45 170 6.7
2014-Nov-28 21:30 169 6.7
2014-Nov-28 21:15 169 6.7
2014-Nov-28 21:00 173 0 gusting 1 7.2
2014-Nov-28 20:45 173 0 gusting 1 7.2
2014-Nov-28 20:30 170 7.8
2014-Nov-28 20:15 167 7.8
2014-Nov-28 20:00 168 0 gusting 0 7.8
2014-Nov-28 19:45 169 7.8
2014-Nov-28 19:30 169 7.8
2014-Nov-28 19:15 170 0 gusting 0 8.3
2014-Nov-28 19:00 150 8.9
2014-Nov-28 18:45 169 8.3
2014-Nov-28 18:30 170 8.9
2014-Nov-28 18:15 170 8.9
2014-Nov-28 18:00 172 8.9
2014-Nov-28 17:45 162 8.9
2014-Nov-28 17:30 156 8.9
2014-Nov-28 17:15 165 10.0
2014-Nov-28 17:00 175 0 gusting 1 10.0
2014-Nov-28 16:45 174 10.6
2014-Nov-28 16:30 176 1 gusting 3 10.6
2014-Nov-28 16:15 165 11.1
2014-Nov-28 16:00 160 11.1
2014-Nov-28 15:45 159 12.2
2014-Nov-28 15:30 158 12.8
2014-Nov-28 15:15 149 13.3
2014-Nov-28 15:00 128 1 gusting 2 13.9
2014-Nov-28 14:45 159 14.4
2014-Nov-28 14:29 159 15.0
2014-Nov-28 14:14 148 14.4
2014-Nov-28 13:59 141 14.4
2014-Nov-28 13:44 162 13.9
2014-Nov-28 13:29 163 13.9
2014-Nov-28 13:14 162 13.3
2014-Nov-28 12:59 159 13.3
2014-Nov-28 12:44 159 12.8
2014-Nov-28 12:29 160 12.8
2014-Nov-28 12:14 165 12.8
2014-Nov-28 11:59 077 12.2
2014-Nov-28 11:44 013 12.2
2014-Nov-28 11:29 013 11.7
2014-Nov-28 11:14 094 11.1
2014-Nov-28 10:59 012 10.6
2014-Nov-28 10:44 335 10.0
2014-Nov-28 10:29 337 9.4
2014-Nov-28 10:14 338 9.4
2014-Nov-28 09:59 323 8.9
2014-Nov-28 09:44 326 8.9
2014-Nov-28 09:28 335 8.3
2014-Nov-28 09:13 349 7.8
2014-Nov-28 08:58 339 7.2
2014-Nov-28 08:43 323 0 gusting 1 6.7
2014-Nov-28 08:28 335 6.7
2014-Nov-28 08:13 339 0 gusting 0 6.1
2014-Nov-28 07:58 041 6.1
2014-Nov-28 07:43 041 5.6
2014-Nov-28 07:28 041 5.0
2014-Nov-28 07:13 058 0 gusting 1 5.0
2014-Nov-28 06:58 167 5.0
2014-Nov-28 05:43
2014-Nov-28 05:27
2014-Nov-28 05:12
2014-Nov-28 04:57
2014-Nov-28 04:42
2014-Nov-28 04:27
2014-Nov-28 04:12
2014-Nov-28 03:57
2014-Nov-28 03:42
2014-Nov-28 03:27
2014-Nov-28 03:12
2014-Nov-28 02:57
2014-Nov-28 02:42
2014-Nov-28 02:27
2014-Nov-28 02:12
2014-Nov-28 01:56
2014-Nov-28 01:41
2014-Nov-28 01:26
2014-Nov-28 01:11
2014-Nov-28 00:56
2014-Nov-28 00:41 170 5.6
2014-Nov-28 00:26 173 6.1
2014-Nov-28 00:11 173 6.7
2014-Nov-27 23:56 173 6.7
2014-Nov-27 23:41 173 6.7
2014-Nov-27 23:26 174 6.7
2014-Nov-27 23:11 173 7.2
2014-Nov-27 22:56 175 7.2
2014-Nov-27 22:41 134 7.2
2014-Nov-27 22:26 172 7.8
2014-Nov-27 22:11 156 7.8
2014-Nov-27 21:56 170 7.8
2014-Nov-27 21:41 174 7.8
2014-Nov-27 21:26 174 8.3
2014-Nov-27 21:11 116 8.3
2014-Nov-27 20:56 115 8.3
2014-Nov-27 20:41 118 8.3
2014-Nov-27 20:26 172 8.9
2014-Nov-27 20:11 173 8.9
2014-Nov-27 19:56 173 9.4
2014-Nov-27 19:41 101 9.4
2014-Nov-27 19:26 077 9.4
2014-Nov-27 19:11 046 1 gusting 2 9.4
2014-Nov-27 18:56 141 0 gusting 3 9.4
2014-Nov-27 18:40 086 5 gusting 6 9.4
2014-Nov-27 18:25 117 0 gusting 1 8.9
2014-Nov-27 18:10 125 0 gusting 2 9.4
2014-Nov-27 17:55 172 9.4
2014-Nov-27 17:40 129 10.0
2014-Nov-27 17:25 155 10.0
2014-Nov-27 16:55 155 10.6
2014-Nov-27 16:40 112 10.6
2014-Nov-27 16:25 032 10.6
2014-Nov-27 16:10 153 10.6
2014-Nov-27 15:55 153 10.6
2014-Nov-27 15:25 073 11.1
2014-Nov-27 15:10 054 1 gusting 3 11.1
2014-Nov-27 14:55 093 3 gusting 4 11.7
2014-Nov-27 14:40 079 3 gusting 4 11.7
2014-Nov-27 14:25 075 3 gusting 4 11.7
2014-Nov-27 14:10 089 2 gusting 5 11.7
2014-Nov-27 13:55 110 3 gusting 6 11.7
2014-Nov-27 13:40 117 4 gusting 6 11.1
2014-Nov-27 13:25 124 3 gusting 7 11.1
2014-Nov-27 13:10 124 6 gusting 7 11.1
2014-Nov-27 12:55 097 3 gusting 5 11.1
2014-Nov-27 12:40 097 2 gusting 4 11.1
2014-Nov-27 12:25 124 1 gusting 2 11.1
2014-Nov-27 12:10 070 1 gusting 1 11.1
2014-Nov-27 11:55 176 11.1
2014-Nov-27 11:40 179 0 gusting 4 11.1
2014-Nov-27 11:25 184 1 gusting 4 11.7
2014-Nov-27 11:10 177 0 gusting 1 11.7
2014-Nov-27 10:55 117 11.7
2014-Nov-27 10:40 165 0 gusting 1 12.2
2014-Nov-27 10:25 001 12.2
2014-Nov-27 10:10 360 11.7
2014-Nov-27 09:55 297 2 gusting 6 12.2
2014-Nov-27 09:40 281 2 gusting 4 12.2
2014-Nov-27 09:25 084 1 gusting 3 12.2
2014-Nov-27 09:10 065 1 gusting 2 12.2
2014-Nov-27 08:55 114 1 gusting 3 11.7
2014-Nov-27 08:40 090 0 gusting 2 11.7
2014-Nov-27 08:24 110 1 gusting 2 11.7
2014-Nov-27 08:09 110 1 gusting 2 11.1
2014-Nov-27 07:54 065 0 gusting 2 11.1
2014-Nov-27 07:39 068 0 gusting 1 11.1
2014-Nov-27 07:24 119 10.6
2014-Nov-27 07:09
2014-Nov-27 06:54
2014-Nov-27 06:39
2014-Nov-27 06:24
2014-Nov-27 06:09
2014-Nov-27 05:54
2014-Nov-27 05:39
2014-Nov-27 05:24
2014-Nov-27 05:09
2014-Nov-27 04:54
2014-Nov-27 04:39
2014-Nov-27 04:24
2014-Nov-27 04:08
2014-Nov-27 03:53
2014-Nov-27 03:38
2014-Nov-27 03:23
2014-Nov-27 03:08